TimeEST,TemperatureF,Dew PointF,Humidity,Sea Level PressureIn,VisibilityMPH,Wind Direction,Wind SpeedMPH,Gust SpeedMPH,PrecipitationIn,Events,Conditions,WindDirDegrees,DateUTC
12:15 AM,38.3,22.5,53,30.07,10.0,Calm,Calm,-,N/A,,Mostly Cloudy,0,2013-03-05 05:15:00
12:35 AM,37.4,24.3,59,30.07,10.0,Calm,Calm,-,N/A,,Scattered Clouds,0,2013-03-05 05:35:00
12:55 AM,36.0,25.0,64,30.07,10.0,Calm,Calm,-,N/A,,Clear,0,2013-03-05 05:55:00
1:35 AM,34.7,25.3,69,30.07,10.0,Calm,Calm,-,N/A,,Clear,0,2013-03-05 06:35:00
1:55 AM,33.6,25.3,72,30.08,10.0,Calm,Calm,-,N/A,,Scattered Clouds,0,2013-03-05 06:55:00
2:15 AM,32.7,24.6,72,30.07,10.0,Calm,Calm,-,N/A,,Clear,0,2013-03-05 07:15:00
2:35 AM,33.6,25.7,73,30.06,10.0,Calm,Calm,-,N/A,,Clear,0,2013-03-05 07:35:00
3:15 AM,32.7,24.1,71,30.05,10.0,Calm,Calm,-,N/A,,Clear,0,2013-03-05 08:15:00
3:55 AM,34.2,25.9,72,30.05,10.0,Calm,Calm,-,N/A,,Clear,0,2013-03-05 08:55:00
4:15 AM,32.4,26.1,78,30.04,10.0,Calm,Calm,-,N/A,,Clear,0,2013-03-05 09:15:00
4:35 AM,32.4,27.1,81,30.04,10.0,Calm,Calm,-,N/A,,Scattered Clouds,0,2013-03-05 09:35:00
4:55 AM,32.5,26.8,79,30.04,10.0,Calm,Calm,-,N/A,,Scattered Clouds,0,2013-03-05 09:55:00
5:15 AM,32.9,27.9,82,30.03,10.0,Calm,Calm,-,N/A,,Clear,0,2013-03-05 10:15:00
5:35 AM,33.4,27.9,80,30.02,10.0,Calm,Calm,-,N/A,,Clear,0,2013-03-05 10:35:00
6:15 AM,34.3,28.4,79,30.04,10.0,Calm,Calm,-,N/A,,Scattered Clouds,0,2013-03-05 11:15:00
6:35 AM,35.6,28.6,76,30.04,10.0,Calm,Calm,-,N/A,,Mostly Cloudy,0,2013-03-05 11:35:00
6:55 AM,35.4,28.6,76,30.03,10.0,Calm,Calm,-,N/A,,Mostly Cloudy,0,2013-03-05 11:55:00
7:35 AM,37.4,25.5,62,30.02,10.0,Calm,Calm,-,N/A,,Overcast,0,2013-03-05 12:35:00
8:15 AM,39.6,26.2,59,30.03,10.0,Calm,Calm,-,N/A,,Overcast,0,2013-03-05 13:15:00
8:35 AM,39.9,28.6,64,30.04,10.0,WNW,3.5,-,N/A,Rain,Rain,290,2013-03-05 13:35:00
8:55 AM,37.4,31.6,80,30.04,10.0,Calm,Calm,-,N/A,Rain,Light Rain,0,2013-03-05 13:55:00
9:15 AM,37.4,32.0,81,30.04,7.0,North,3.5,-,0.01,Rain,Rain,360,2013-03-05 14:15:00
9:35 AM,36.9,33.4,87,30.04,3.0,Calm,Calm,-,0.03,Rain,Light Rain,0,2013-03-05 14:35:00
9:55 AM,37.4,33.6,86,30.02,3.0,Calm,Calm,-,0.06,Rain,Rain,0,2013-03-05 14:55:00
10:15 AM,37.4,35.2,92,30.02,2.5,Calm,Calm,-,0.04,Rain,Rain,0,2013-03-05 15:15:00
10:35 AM,37.9,36.3,94,30.01,7.0,Calm,Calm,-,0.04,Rain,Light Rain,0,2013-03-05 15:35:00
10:55 AM,38.3,35.8,91,30.02,7.0,Calm,Calm,-,0.05,,Unknown,0,2013-03-05 15:55:00
11:15 AM,38.1,35.4,90,30.01,10.0,Calm,Calm,-,N/A,,Overcast,0,2013-03-05 16:15:00
11:35 AM,38.7,36.5,92,30.00,10.0,Calm,Calm,-,0.01,,Light Drizzle,0,2013-03-05 16:35:00
11:55 AM,38.8,36.3,91,29.99,10.0,Calm,Calm,-,0.01,,Light Drizzle,0,2013-03-05 16:55:00
12:15 PM,39.6,37.0,91,29.97,7.0,Calm,Calm,-,N/A,,Light Drizzle,0,2013-03-05 17:15:00
12:35 PM,40.6,37.9,90,29.95,10.0,Calm,Calm,-,N/A,Rain,Light Rain,0,2013-03-05 17:35:00
12:55 PM,41.0,38.1,89,29.94,7.0,Calm,Calm,-,N/A,Rain,Light Rain,0,2013-03-05 17:55:00
1:15 PM,41.0,38.8,92,29.93,7.0,Calm,Calm,-,N/A,Rain,Light Rain,0,2013-03-05 18:15:00
1:35 PM,41.4,39.6,93,29.92,7.0,Calm,Calm,-,N/A,,Overcast,0,2013-03-05 18:35:00
1:55 PM,41.7,39.9,93,29.90,5.0,Calm,Calm,-,N/A,Rain,Rain,0,2013-03-05 18:55:00
2:15 PM,41.7,39.7,93,29.90,7.0,Calm,Calm,-,N/A,,Overcast,0,2013-03-05 19:15:00
2:35 PM,42.3,39.6,90,29.89,7.0,Calm,Calm,-,N/A,,Light Drizzle,0,2013-03-05 19:35:00
2:55 PM,42.3,40.1,92,29.89,7.0,Calm,Calm,-,0.01,Rain,Light Rain,0,2013-03-05 19:55:00
3:15 PM,42.3,39.9,91,29.88,7.0,Calm,Calm,-,N/A,,Overcast,0,2013-03-05 20:15:00
3:35 PM,41.9,40.3,94,29.87,4.0,Calm,Calm,-,N/A,Rain,Rain,0,2013-03-05 20:35:00
3:55 PM,41.4,40.5,97,29.85,1.5,Calm,Calm,-,0.07,Rain,Heavy Rain,0,2013-03-05 20:55:00
4:15 PM,41.5,41.0,98,29.83,1.2,Calm,Calm,-,0.01,Rain,Rain,0,2013-03-05 21:15:00
4:35 PM,41.4,41.2,99,29.82,1.2,Calm,Calm,-,0.01,,Light Drizzle,0,2013-03-05 21:35:00
4:55 PM,41.4,41.2,99,29.80,1.2,ENE,3.5,-,0.02,,Drizzle,70,2013-03-05 21:55:00
5:15 PM,41.5,41.5,100,29.78,1.0,ENE,3.5,-,N/A,Rain,Light Rain,60,2013-03-05 22:15:00
5:35 PM,41.4,41.4,100,29.77,1.2,NE,3.5,-,0.01,,Light Drizzle,40,2013-03-05 22:35:00
5:55 PM,41.2,41.2,100,29.76,0.5,NNW,4.6,-,0.02,,Unknown,340,2013-03-05 22:55:00
6:15 PM,41.0,41.0,100,29.76,1.8,NNW,6.9,-,0.07,,Unknown,340,2013-03-05 23:15:00
6:35 PM,40.5,40.5,100,29.79,1.5,NW,10.4,-,0.24,,Unknown,320,2013-03-05 23:35:00
6:55 PM,40.1,40.1,100,29.76,1.8,North,8.1,-,0.40,,Unknown,360,2013-03-05 23:55:00
7:15 PM,40.1,40.1,100,29.73,1.5,NE,3.5,-,0.12,,Unknown,40,2013-03-06 00:15:00
7:35 PM,40.1,40.1,100,29.73,5.0,NNW,8.1,-,0.14,,Unknown,340,2013-03-06 00:35:00
7:55 PM,40.1,40.1,100,29.73,1.8,Calm,Calm,-,0.20,,Unknown,0,2013-03-06 00:55:00
8:15 PM,39.7,39.7,100,29.68,4.0,ENE,5.8,-,0.02,,Unknown,70,2013-03-06 01:15:00
8:35 PM,40.1,40.1,100,29.69,10.0,Calm,Calm,-,0.03,,Overcast,0,2013-03-06 01:35:00
8:55 PM,39.2,39.2,100,29.68,4.0,Calm,Calm,-,0.03,,Mostly Cloudy,0,2013-03-06 01:55:00
9:15 PM,39.0,39.0,100,29.68,4.0,Calm,Calm,-,N/A,,Mostly Cloudy,0,2013-03-06 02:15:00
9:35 PM,39.2,39.2,100,29.71,5.0,WNW,10.4,-,N/A,,Overcast,300,2013-03-06 02:35:00
9:55 PM,39.6,39.6,100,29.68,2.5,Calm,Calm,-,0.05,Rain,Heavy Rain,0,2013-03-06 02:55:00
10:15 PM,39.6,39.6,100,29.68,3.0,NNW,5.8,-,0.01,Rain,Rain,340,2013-03-06 03:15:00
10:35 PM,39.6,39.6,100,29.68,7.0,Calm,Calm,-,0.01,,Overcast,0,2013-03-06 03:35:00
10:55 PM,39.6,39.6,100,29.67,7.0,Calm,Calm,-,0.01,,Overcast,0,2013-03-06 03:55:00
11:15 PM,38.5,38.5,100,29.67,1.5,SSW,3.5,-,N/A,,Overcast,210,2013-03-06 04:15:00
11:35 PM,37.6,37.6,100,29.66,1.2,Calm,Calm,-,N/A,,Mostly Cloudy,0,2013-03-06 04:35:00
11:55 PM,38.7,38.7,100,29.67,10.0,WNW,3.5,-,0.01,,Scattered Clouds,290,2013-03-06 04:55:00